Content
SEND FEEDBACK

Daily
Averages
Monthly
Summary
Mexico

PLAYA DEL CARMEN, QUINTANA ROO


Home > North America > Mexico > Quintana Roo
Elevation: 30 feet     Latitude: 20 38N     Longitude: 087 04W

WEATHER
 
SELECT A DAY
Number of Records: 196,556;   Date Range: 2/21/06 - 8/30/14
 
SHARE

PRINT THIS DATA

[ ← Previous Day ]
WEATHER ALMANAC - JANUARY 26, 2014
[ Next Day → ]
[ °C ]   °F
Weather ElementAverageHighLow
Temperature61.2 °F66.2 °F (2:35 pm)55.4 °F (12:35 am)
Dewpoint17.6 °F64.4 °F (4:55 pm) (7:00 pm)
Humidity72.9 %100 % (12:35 am)64 % (12:35 pm)
Barometer30.06 in30.12 in (10:35 am)30.02 in (3:35 pm)
Wind Speed1.6 mph5.8 mph (7:15 am)
Weather ElementAverage
Visibility7.9 mi
Wind DirectionENE (65.5 °)

Weather ElementTotal
Precipitation---
Heating Degree Days4.2 (Base 65)
Growing Degree Days10.8 (Base 50)
Averaged from 71 records on January 26, 2014
WEATHER CONDITIONS BREAKOUT
WIND DIRECTION BREAKOUT
WEATHER BY HOUR - JANUARY 26, 2014
[ °C ]   °F
Local TimeTemperatureDewpointHumidityBarometerVisibilityWind DirectionWind SpeedGust SpeedPrecipitationEventsConditions
12:35 AM55.4 °F55.4 °F100 %30.08 in10.0 miWSW (240°)3.5 mphClear
12:55 AM55.4 °F0.0 °F30.07 in10.0 miWSW (240°)3.5 mphClear
1:15 AM55.4 °F0.0 °F30.07 in10.0 miSW (220°)3.5 mphScattered Clouds
1:35 AM55.4 °F0.0 °F30.06 in10.0 miCalmScattered Clouds
1:55 AM55.4 °F0.0 °F30.05 in10.0 miCalmScattered Clouds
2:15 AM55.4 °F0.0 °F30.05 in10.0 miSSW (210°)3.5 mphScattered Clouds
2:35 AM57.2 °F0.0 °F30.04 in10.0 miSouth (190°)3.5 mphMostly Cloudy
2:55 AM57.2 °F0.0 °F30.04 in10.0 miSouth (190°)3.5 mphMostly Cloudy
3:15 AM57.2 °F0.0 °F30.04 in10.0 miSSW (200°)4.6 mphOvercast
3:35 AM57.2 °F0.0 °F30.04 in10.0 miSSW (210°)4.6 mphOvercast
3:55 AM57.2 °F0.0 °F30.04 in10.0 miSouth (190°)3.5 mphOvercast
4:15 AM57.2 °F0.0 °F30.04 in10.0 miCalmOvercast
4:35 AM57.2 °F0.0 °F30.05 in10.0 miSW (230°)4.6 mphOvercast
4:55 AM57.2 °F0.0 °F30.05 in10.0 miCalmOvercast
5:15 AM59.0 °F0.0 °F30.06 in10.0 miNW (320°)3.5 mphOvercast
5:35 AM59.0 °F0.0 °F30.06 in10.0 miCalmOvercast
5:55 AM59.0 °F0.0 °F30.06 in3.0 miCalmOvercast
6:15 AM59.0 °F0.0 °F30.07 in5.0 miCalmHaze
6:35 AM59.0 °F0.0 °F30.07 in5.0 miCalmHaze
6:55 AM59.0 °F0.0 °F30.07 in7.0 miCalmOvercast
7:15 AM59.0 °F0.0 °F30.07 in10.0 miNorth (350°)5.8 mphOvercast
7:35 AM59.0 °F0.0 °F30.08 in10.0 miNNW (340°)3.5 mphOvercast
7:55 AM59.0 °F0.0 °F30.09 in10.0 miCalmOvercast
8:15 AM59.0 °F0.0 °F30.09 in10.0 miCalmOvercast
8:35 AM59.0 °F0.0 °F30.09 in10.0 miCalmOvercast
8:55 AM59.0 °F0.0 °F30.09 in7.0 miNE (50°)5.8 mphOvercast
9:15 AM59.0 °F0.0 °F30.10 in10.0 miNE (40°)3.5 mphOvercast
9:35 AM59.0 °F0.0 °F30.10 in10.0 miNNE (20°)5.8 mphOvercast
9:55 AM60.8 °F51.8 °F72 %30.11 in10.0 miNE (50°)4.6 mphOvercast
10:15 AM60.8 °F51.8 °F72 %30.11 in10.0 miNorth (10°)3.5 mphOvercast
10:35 AM60.8 °F51.8 °F72 %30.12 in10.0 miCalmOvercast
10:55 AM62.6 °F51.8 °F68 %30.11 in10.0 miENE (70°)4.6 mphOvercast
11:15 AM62.6 °F51.8 °F68 %30.12 in10.0 miCalmOvercast
11:35 AM62.6 °F51.8 °F68 %30.11 in10.0 miNE (50°)3.5 mphOvercast
11:55 AM62.6 °F51.8 °F68 %30.10 in10.0 miCalmOvercast
12:15 PM62.6 °F51.8 °F68 %30.09 in10.0 miCalmOvercast
12:35 PM64.4 °F51.8 °F64 %30.09 in10.0 miCalmOvercast
12:55 PM62.6 °F51.8 °F68 %30.08 in10.0 miCalmOvercast
1:15 PM64.4 °F51.8 °F64 %30.07 in10.0 miCalmOvercast
1:35 PM64.4 °F53.6 °F68 %30.05 in10.0 miCalmOvercast
1:55 PM64.4 °F53.6 °F68 %30.04 in10.0 miCalmOvercast
2:15 PM64.4 °F53.6 °F68 %30.04 in10.0 miSSE (160°)4.6 mphOvercast
2:35 PM66.2 °F55.4 °F68 %30.03 in10.0 miSouth (170°)5.8 mphOvercast
2:55 PM66.2 °F55.4 °F68 %30.03 in10.0 miSouth (190°)4.6 mphOvercast
3:15 PM66.2 °F57.2 °F73 %30.03 in10.0 miCalmOvercast
3:35 PM66.2 °F57.2 °F73 %30.02 in10.0 miSSW (200°)3.5 mphOvercast
3:55 PM66.2 °F57.2 °F73 %30.02 in10.0 miSSW (210°)3.5 mphOvercast
4:15 PM64.4 °F59.0 °F83 %30.03 in5.0 miCalmHaze
4:35 PM64.4 °F59.0 °F83 %30.03 in3.0 miCalmLight Drizzle
4:55 PM64.4 °F64.4 °F100 %30.03 in5.0 miCalmOvercast
5:15 PM64.4 °F0.0 °F30.02 in7.0 miCalmOvercast
5:35 PM64.4 °F0.0 °F30.02 in7.0 miCalmOvercast
5:55 PM64.4 °F0.0 °F30.02 in7.0 miCalmOvercast
6:15 PM64.4 °F0.0 °F30.02 in7.0 miCalmOvercast
6:35 PM62.6 °F0.0 °F30.03 in7.0 miCalmOvercast
6:55 PM62.6 °F0.0 °F30.03 in5.0 miCalmRainRain
7:15 PM62.6 °F0.0 °F30.03 in5.0 miCalmHaze
7:35 PM62.6 °F0.0 °F30.03 in5.0 miCalmHaze
7:55 PM62.6 °F0.0 °F30.03 in5.0 miCalmHaze
8:15 PM62.6 °F0.0 °F30.03 in5.0 miCalmHaze
8:35 PM62.6 °F0.0 °F30.04 in5.0 miCalmRainRain
8:55 PM62.6 °F0.0 °F30.04 in4.0 miCalmHaze
9:15 PM62.6 °F0.0 °F30.04 in4.0 miCalmHaze
9:35 PM62.6 °F0.0 °F30.04 in4.0 miCalmHaze
9:55 PM62.6 °F0.0 °F30.04 in3.0 miCalmOvercast
10:15 PM62.6 °F0.0 °F30.04 in3.0 miCalmOvercast
10:35 PM62.6 °F0.0 °F30.05 in3.0 miCalmOvercast
10:55 PM62.6 °F0.0 °F30.04 in4.0 miCalmHaze
11:15 PM62.6 °F0.0 °F30.04 in3.0 miCalmOvercast
11:35 PM62.6 °F0.0 °F30.03 in3.0 miSSE (150°)3.5 mphOvercast
11:55 PM62.6 °F0.0 °F30.02 in4.0 miSSE (150°)3.5 mphHaze
Hourly data recorded from KPCM, located miles away from Playa del Carmen, Quintana Roo







STORIES FROM OUR PARTNERS